Location: Augustenthal
(51.7167°N, 10.2833°E)
Time: 20:17:11
(UTC+00:00)

Cosmos 962 Rocket - Pass Details

Date: 18 May 2021
Orbit: 950 x 1000 km, 82.9° (Epoch: 20 June)

Event Time Altitude Azimuth Distance (km) Brightness Sun altitude
Rises 20:36:45 0° 350° (N) 3,638 8.7 -10.6°
Reaches altitude 10° 20:39:15 10° 352° (N) 2,689 7.8 -10.8°
Maximum altitude 20:45:24 76° 78° (ENE) 988 4.5 -11.4°
Enters shadow 20:50:48 14° 164° (SSE) 2,411 6.0 -11.9°
